Terug naar catalogus

STARLINK-3068

ActiefCommunicatieVLEO
NORAD 49154·PAYLOAD·🇺🇸 United States

Gelanceerd Sep 14, 2021 vanaf Vandenberg Space Force Base

Loading…

Volgende Passages (komende 24 uur)

TLE

VersSource: CelesTrak SupGP

Epoch: Sep 15, 2026, 02:03 UTC

1 49154C 21082AA  26258.08590278  .00016698  00000+0  14288-2 0  2580
2 49154  70.0012 158.2974 0002926 274.5609  46.1370 14.97515106    14

Volg STARLINK-3068 in realtime met AllMySat

Download on the App Store